Hazen, ND

5:13 PM CST on December 07, 2016 (GMT -0600)
Mercer County Regional

Weather History for KHZE - September, 2013

Change the Weather History Date:

Wednesday, September 18, 2013

  Actual Average (KN60) Record (KN60)
Temperature  
Mean Temperature 66 °F -  
Max Temperature 77 °F - 91 °F (2004)
Min Temperature 55 °F - 31 °F (2010)
Degree Days  
Heating Degree Days 0    
Cooling Degree Days 1    
Growing Degree Days 16 (Base 50)    
Moisture  
Dew Point 59 °F    
Average Humidity 80    
Maximum Humidity 100    
Minimum Humidity 54    
Precipitation  
Precipitation 0.00 in - 0.03 in (1999)
Month to date precipitation  
Year to date precipitation  
Sea Level Pressure  
Sea Level Pressure 29.62 in    
Wind  
Wind Speed 6 mph (SSW)    
Max Wind Speed 14 mph    
Max Gust Speed 23 mph    
Visibility 10 miles    
Events Rain    
T = Trace of Precipitation, MM = Missing Value Source: NWS Daily Summary

Daily Weather History Graph

Daily Weather History Graph

Search for Another Location

Airport or City:

Trip Planner

Search our weather history database for the weather conditions in past years. The results will help you decide how hot, cold, wet, or windy it might be!

Date:

Astronomy

Sep. 18, 2013 Rise Set
Actual Time 7:28 AM CDT 7:51 PM CDT
Civil Twilight 6:57 AM CDT 8:22 PM CDT
Nautical Twilight 6:21 AM CDT 8:58 PM CDT
Astronomical Twilight 5:43 AM CDT 9:35 PM CDT
Moon 7:14 PM CDT (9/18) 6:31 AM CDT (9/18)
Length of Visible Light 13h 24m
Length of Day
12h 23m
Waxing Gibbous, 99% of the Moon is Illuminated
Sep 18
Waxing Gibbous
Sep 19
Full
Sep 26
Last Quarter
Oct 4
New
Oct 11
First Quarter

Hourly Weather History & Observations

Time (CDT) Temp. Dew Point Humidity Pressure Visibility Wind Dir Wind Speed Gust Speed Precip Events Conditions
12:15 AM 62.6 °F 57.2 °F 82% 29.68 in 10.0 mi East 3.5 mph - N/A   Clear
12:35 AM 62.6 °F 57.2 °F 82% 29.68 in 10.0 mi SE 4.6 mph - N/A   Clear
12:55 AM 62.6 °F 57.2 °F 82% 29.73 in 10.0 mi WSW 9.2 mph - N/A   Clear
1:15 AM 64.4 °F 59.0 °F 83% 29.72 in 10.0 mi SSW 13.8 mph - N/A   Scattered Clouds
1:35 AM 64.4 °F 59.0 °F 83% 29.72 in 10.0 mi South 10.4 mph - N/A   Mostly Cloudy
1:55 AM 62.6 °F 59.0 °F 88% 29.68 in 10.0 mi SSE 11.5 mph - N/A   Scattered Clouds
2:15 AM 62.6 °F 59.0 °F 88% 29.64 in 10.0 mi ESE 11.5 mph 19.6 mph N/A   Clear
2:35 AM 62.6 °F 59.0 °F 88% 29.66 in 10.0 mi South 8.1 mph - N/A   Partly Cloudy
2:55 AM 62.6 °F 59.0 °F 88% 29.68 in 10.0 mi SSE 11.5 mph - N/A   Partly Cloudy
3:15 AM 62.6 °F 59.0 °F 88% 29.65 in 10.0 mi NE 6.9 mph - N/A   Mostly Cloudy
3:35 AM 62.6 °F 57.2 °F 82% 29.64 in 10.0 mi North 6.9 mph - N/A   Mostly Cloudy
3:55 AM 60.8 °F 57.2 °F 88% 29.64 in 10.0 mi North 5.8 mph - N/A   Scattered Clouds
4:15 AM 60.8 °F 57.2 °F 88% 29.64 in 10.0 mi ENE 5.8 mph - N/A   Partly Cloudy
4:35 AM 59.0 °F 57.2 °F 94% 29.60 in 10.0 mi NE 8.1 mph - N/A   Clear
4:55 AM 59.0 °F 57.2 °F 94% 29.61 in 10.0 mi NNE 6.9 mph - N/A   Scattered Clouds
5:15 AM 59.0 °F 57.2 °F 94% 29.61 in 10.0 mi East 9.2 mph - N/A Rain Light Rain
5:35 AM 59.0 °F 57.2 °F 94% 29.60 in 10.0 mi ENE 5.8 mph - N/A   Overcast
5:55 AM 59.0 °F 57.2 °F 94% 29.60 in 10.0 mi NE 4.6 mph - N/A   Overcast
6:15 AM 59.0 °F 57.2 °F 94% 29.60 in 10.0 mi Calm Calm - N/A   Overcast
6:35 AM 59.0 °F 57.2 °F 94% 29.60 in 9.0 mi Calm Calm - N/A   Mostly Cloudy
6:55 AM 55.4 °F 55.4 °F 100% 29.62 in 7.0 mi SSE 6.9 mph - N/A   Clear
7:15 AM 57.2 °F 57.2 °F 100% 29.62 in 10.0 mi South 6.9 mph - N/A   Clear
7:35 AM 59.0 °F 57.2 °F 94% 29.62 in 10.0 mi SSE 9.2 mph - N/A   Clear
7:55 AM 59.0 °F 57.2 °F 94% 29.61 in 10.0 mi NE 5.8 mph - N/A   Clear
8:15 AM 59.0 °F 57.2 °F 94% 29.61 in 10.0 mi Calm Calm - N/A   Clear
8:35 AM 59.0 °F 57.2 °F 94% 29.60 in 10.0 mi East 3.5 mph - N/A   Clear
8:55 AM 62.6 °F 59.0 °F 88% 29.60 in 10.0 mi SSE 5.8 mph - N/A   Clear
9:15 AM 64.4 °F 59.0 °F 83% 29.59 in 10.0 mi SSE 10.4 mph - N/A   Clear
9:35 AM 66.2 °F 59.0 °F 78% 29.58 in 10.0 mi SSE 11.5 mph - N/A   Partly Cloudy
9:55 AM 66.2 °F 59.0 °F 78% 29.59 in 10.0 mi South 10.4 mph - N/A   Scattered Clouds
10:15 AM 66.2 °F 60.8 °F 83% 29.60 in 10.0 mi SSW 6.9 mph - N/A   Mostly Cloudy
10:35 AM 66.2 °F 60.8 °F 83% 29.60 in 10.0 mi South 13.8 mph 17.3 mph N/A   Overcast
10:55 AM 64.4 °F 60.8 °F 88% 29.60 in 10.0 mi South 11.5 mph - N/A   Mostly Cloudy
11:15 AM 64.4 °F 60.8 °F 88% 29.60 in 10.0 mi South 8.1 mph - N/A   Overcast
11:35 AM 66.2 °F 60.8 °F 83% 29.59 in 10.0 mi SSW 10.4 mph - N/A   Overcast
11:55 AM 66.2 °F 60.8 °F 83% 29.60 in 10.0 mi SSW 9.2 mph - N/A   Overcast
12:15 PM 66.2 °F 62.6 °F 88% 29.60 in 10.0 mi SSW 9.2 mph - N/A   Overcast
12:35 PM 66.2 °F 62.6 °F 88% 29.59 in 10.0 mi SSW 6.9 mph - N/A   Overcast
12:55 PM 68.0 °F 62.6 °F 83% 29.59 in 10.0 mi Calm Calm - N/A   Overcast
1:15 PM 68.0 °F 62.6 °F 83% 29.58 in 10.0 mi SW 3.5 mph - N/A   Overcast
1:35 PM 69.8 °F 62.6 °F 78% 29.58 in 10.0 mi Calm Calm - N/A   Overcast
1:55 PM 71.6 °F 62.6 °F 73% 29.58 in 10.0 mi Calm Calm - N/A   Scattered Clouds
2:15 PM 73.4 °F 62.6 °F 69% 29.58 in 10.0 mi Calm Calm - N/A   Partly Cloudy
2:35 PM 73.4 °F 62.6 °F 69% 29.58 in 10.0 mi Calm Calm - N/A   Mostly Cloudy
2:55 PM 75.2 °F 62.6 °F 65% 29.58 in 10.0 mi Calm Calm - N/A   Scattered Clouds
3:15 PM 77.0 °F 62.6 °F 61% 29.58 in 10.0 mi Calm Calm - N/A   Clear
3:35 PM 75.2 °F 60.8 °F 61% 29.58 in 10.0 mi West 5.8 mph - N/A   Scattered Clouds
3:55 PM 77.0 °F 60.8 °F 57% 29.57 in 10.0 mi Calm Calm - N/A   Scattered Clouds
4:15 PM 77.0 °F 60.8 °F 57% 29.58 in 10.0 mi West 5.8 mph - N/A   Partly Cloudy
4:35 PM 77.0 °F 59.0 °F 54% 29.57 in 10.0 mi WSW 6.9 mph - N/A   Clear
4:55 PM 77.0 °F 59.0 °F 54% 29.58 in 10.0 mi WNW 8.1 mph 16.1 mph N/A   Clear
5:15 PM 77.0 °F 60.8 °F 57% 29.58 in 10.0 mi WNW 8.1 mph - N/A   Partly Cloudy
5:35 PM 77.0 °F 59.0 °F 54% 29.58 in 10.0 mi WSW 5.8 mph - N/A   Clear
5:55 PM 77.0 °F 59.0 °F 54% 29.58 in 10.0 mi West 4.6 mph - N/A   Clear
6:15 PM 75.2 °F 60.8 °F 61% 29.59 in 10.0 mi WSW 4.6 mph - N/A   Clear
6:35 PM 73.4 °F 59.0 °F 61% 29.59 in 10.0 mi SW 3.5 mph - N/A   Clear
6:55 PM 73.4 °F 59.0 °F 61% 29.60 in 10.0 mi SW 6.9 mph - N/A   Clear
7:15 PM 71.6 °F 59.0 °F 64% 29.60 in 10.0 mi SW 5.8 mph - N/A   Clear
7:35 PM 71.6 °F 59.0 °F 64% 29.61 in 10.0 mi SW 4.6 mph - N/A   Clear
7:55 PM 68.0 °F 59.0 °F 73% 29.59 in 10.0 mi Calm Calm - N/A   Clear
8:15 PM 66.2 °F 59.0 °F 78% 29.60 in 10.0 mi Calm Calm - N/A   Clear
8:35 PM 64.4 °F 59.0 °F 83% 29.60 in 10.0 mi SSE 3.5 mph - N/A   Clear
8:55 PM 62.6 °F 57.2 °F 82% 29.62 in 10.0 mi SSE 6.9 mph - N/A   Clear
9:15 PM 62.6 °F 57.2 °F 82% 29.62 in 10.0 mi SSE 4.6 mph - N/A   Clear
9:35 PM 59.0 °F 57.2 °F 94% 29.63 in 10.0 mi SSE 5.8 mph - N/A   Clear
9:55 PM 59.0 °F 55.4 °F 88% 29.64 in 10.0 mi SSE 3.5 mph - N/A   Clear
10:15 PM 59.0 °F 55.4 °F 88% 29.65 in 10.0 mi Calm Calm - N/A   Clear
10:35 PM 60.8 °F 57.2 °F 88% 29.66 in 5.0 mi WSW 5.8 mph - N/A   Partly Cloudy
10:55 PM 64.4 °F 57.2 °F 77% 29.68 in 10.0 mi West 11.5 mph 19.6 mph N/A   Partly Cloudy
11:15 PM 64.4 °F 55.4 °F 73% 29.68 in 10.0 mi West 11.5 mph 17.3 mph N/A   Clear
11:35 PM 64.4 °F 55.4 °F 73% 29.69 in 10.0 mi West 13.8 mph - N/A   Clear
11:55 PM 64.4 °F 55.4 °F 73% 29.68 in 10.0 mi West 12.7 mph 23.0 mph N/A   Clear